星链-1717 (STARLINK-1717 )

导读

STARLINK-1717是美国SpaceX公司星链(Starlink)卫星互联网项目中的一颗低轨通信卫星,于2020年10月18日发射升空,属于星链星座第一阶段组网卫星。星链项目旨在通过数千颗低轨卫星组网,为全球偏远地区提供高速低延迟宽带互联网接入,该卫星运行在近地轨道,参与构建全球覆盖的卫星通信网络,推动了低轨卫星通信技术发展,同时也带来了太空碎片和天文观测干扰等争议。

基本信息
目录编号:
46673
目录名称:
STARLINK-1717
国际标识:
2020-073D
轨道中心:
EARTH
卫星名称:
星链-1717
卫星全名:
星链-1717 (STARLINK-1717 )
卫星状态:
已陨落 最后检测时间 2024-08-24
发射日期:
2020-10-18 UTC
国别 :
美国 (US)
星等 :
--
该卫星已列入 空间交会检测服务 Space Conjunction Data Service (SCDS) ,当前飞行风险评估等级: 无高风险
轨道信息
数据来源 国际轨道数据
星历时间: 2024-08-24T02:44:09+0800
轨道信息已过期750天
半长轴: 6580.105km
偏心率: 0.0001872
轨道倾角: 53.032°
近地点辐角 97.877°
升交点赤经 197.799°
平近点角 2.009°
近地点: 200.738km
远地点: 203.202km
周期: 88.534分钟
每日圈数: 16.264982
详细信息
固有亮度:
5
最大亮度:
2.5
卫星平台:
Starlink V1.0
覆盖范围:
全球
运营商:
太空探索技术公司
运营商所在国:
美国
制造商(研发单位):
太空探索技术公司
制造商所在国:
美国
使用方式:
暂无
卫星简介
星链(Starlink)计划是由太空探索技术公司(SpaceX)提出的一个巨型低轨卫星互联网星座项目,计划在2019年至2024年间在太空搭建由约1.2万颗卫星组成的“星链”网络,其中1584颗将部署在地球上空550千米处的近地轨道,并从2020年开始工作。该卫星仍在工作。
与全量物体交会距离演化趋势
与全量物体交会风险概率演化趋势